Voltar ao catálogo

KUIPER-00416

AtivoComunicaçõesLEO
NORAD 68931·PAYLOAD·🇺🇸 United States

Lançado Apr 30, 2026 de Guiana Space Centre

Loading…

Próximas Passagens (próximas 24 horas)

TLE

AtualizadoSource: CelesTrak SupGP

Época: Sep 14, 2026, 22:55 UTC

1 68931C 26098N   26257.95496528  .00004475  00000+0  58592-3 0  2570
2 68931  51.9032   7.5689 0000550 112.3475 142.8502 14.79917197    15

Acompanhe KUIPER-00416 em tempo real com AllMySat

Download on the App Store